Time,TemperatureF,DewpointF,PressureIn,WindDirection,WindDirectionDegrees,WindSpeedMPH,WindSpeedGustMPH,Humidity,HourlyPrecipIn,Conditions,Clouds,dailyrainin,SoftwareType,DateUTC
2013-07-15 00:02:00,74.0,70.0,30.13,SE,142,0.0,0.0,88,0.00,,,0.00,,2013-07-15 05:02:00,
2013-07-15 00:11:00,73.0,70.0,30.13,SE,142,0.0,0.0,89,0.00,,,0.00,,2013-07-15 05:11:00,
2013-07-15 00:21:00,73.0,70.0,30.13,SE,142,0.0,0.0,90,0.00,,,0.00,,2013-07-15 05:21:00,
2013-07-15 00:32:00,73.0,70.0,30.13,SE,142,0.0,0.0,90,0.00,,,0.00,,2013-07-15 05:32:00,
2013-07-15 00:43:00,74.0,70.0,30.13,SE,142,0.0,1.0,88,0.00,,,0.00,,2013-07-15 05:43:00,
2013-07-15 00:53:00,74.0,70.0,30.13,SE,142,0.0,1.0,88,0.00,,,0.00,,2013-07-15 05:53:00,
2013-07-15 01:02:00,74.0,70.0,30.13,SE,142,0.0,1.0,87,0.00,,,0.00,,2013-07-15 06:02:00,
2013-07-15 01:11:00,74.0,70.0,30.13,SE,142,0.0,1.0,87,0.00,,,0.00,,2013-07-15 06:11:00,
2013-07-15 01:22:00,74.0,70.0,30.13,SE,142,0.0,1.0,88,0.00,,,0.00,,2013-07-15 06:22:00,
2013-07-15 01:32:00,74.0,70.0,30.13,SE,142,2.0,4.0,88,0.00,,,0.00,,2013-07-15 06:32:00,
2013-07-15 01:42:00,74.0,70.0,30.13,SE,142,0.0,2.0,88,0.00,,,0.00,,2013-07-15 06:42:00,
2013-07-15 01:53:00,73.0,70.0,30.13,SE,142,0.0,1.0,89,0.00,,,0.00,,2013-07-15 06:53:00,
2013-07-15 02:01:00,73.0,70.0,30.13,SE,142,0.0,2.0,89,0.00,,,0.00,,2013-07-15 07:01:00,
2013-07-15 02:11:00,73.0,70.0,30.13,SE,142,0.0,2.0,89,0.00,,,0.00,,2013-07-15 07:11:00,
2013-07-15 02:21:00,73.0,70.0,30.14,SE,142,0.0,0.0,90,0.00,,,0.00,,2013-07-15 07:21:00,
2013-07-15 02:33:00,73.0,70.0,30.14,SE,142,0.0,0.0,90,0.00,,,0.00,,2013-07-15 07:33:00,
2013-07-15 02:43:00,73.0,70.0,30.14,SE,142,0.0,1.0,89,0.00,,,0.00,,2013-07-15 07:43:00,
2013-07-15 02:53:00,73.0,70.0,30.14,SE,142,0.0,1.0,89,0.00,,,0.00,,2013-07-15 07:53:00,
2013-07-15 03:01:00,72.0,69.0,30.14,SE,142,0.0,0.0,90,0.00,,,0.00,,2013-07-15 08:01:00,
2013-07-15 03:11:00,72.0,69.0,30.14,SE,142,0.0,1.0,90,0.00,,,0.00,,2013-07-15 08:11:00,
2013-07-15 03:22:00,72.0,69.0,30.14,SE,142,0.0,1.0,90,0.00,,,0.00,,2013-07-15 08:22:00,
2013-07-15 03:32:00,72.0,69.0,30.15,SE,142,0.0,0.0,90,0.00,,,0.00,,2013-07-15 08:32:00,
2013-07-15 03:43:00,72.0,69.0,30.15,SE,142,0.0,0.0,90,0.00,,,0.00,,2013-07-15 08:43:00,
2013-07-15 03:53:00,72.0,69.0,30.15,SE,142,0.0,0.0,91,0.00,,,0.00,,2013-07-15 08:53:00,
2013-07-15 04:02:00,72.0,69.0,30.14,SE,142,0.0,0.0,91,0.00,,,0.00,,2013-07-15 09:02:00,
2013-07-15 04:11:00,72.0,69.0,30.14,SE,142,0.0,0.0,91,0.00,,,0.00,,2013-07-15 09:11:00,
2013-07-15 04:22:00,71.0,68.0,30.14,SE,142,0.0,0.0,91,0.00,,,0.00,,2013-07-15 09:22:00,
2013-07-15 04:32:00,71.0,68.0,30.14,SE,142,0.0,1.0,91,0.00,,,0.00,,2013-07-15 09:32:00,
2013-07-15 04:43:00,71.0,68.0,30.14,SE,142,0.0,1.0,91,0.00,,,0.00,,2013-07-15 09:43:00,
2013-07-15 04:52:00,71.0,68.0,30.14,SE,142,0.0,1.0,91,0.00,,,0.00,,2013-07-15 09:52:00,
2013-07-15 05:02:00,71.0,68.0,30.14,SE,142,0.0,1.0,91,0.00,,,0.00,,2013-07-15 10:02:00,
2013-07-15 05:11:00,71.0,68.0,30.14,SE,142,0.0,1.0,91,0.00,,,0.00,,2013-07-15 10:11:00,
2013-07-15 05:22:00,70.0,68.0,30.14,SE,142,0.0,0.0,93,0.00,,,0.00,,2013-07-15 10:22:00,
2013-07-15 05:32:00,70.0,68.0,30.14,SE,142,0.0,0.0,93,0.00,,,0.00,,2013-07-15 10:32:00,
2013-07-15 05:43:00,70.0,68.0,30.15,SE,142,0.0,0.0,93,0.00,,,0.00,,2013-07-15 10:43:00,
2013-07-15 05:53:00,70.0,68.0,30.15,SE,142,0.0,1.0,93,0.00,,,0.00,,2013-07-15 10:53:00,
2013-07-15 06:02:00,70.0,68.0,30.15,SE,142,0.0,1.0,92,0.00,,,0.00,,2013-07-15 11:02:00,
2013-07-15 06:11:00,70.0,68.0,30.15,SE,142,0.0,1.0,92,0.00,,,0.00,,2013-07-15 11:11:00,
2013-07-15 06:22:00,70.0,68.0,30.15,SE,142,0.0,0.0,93,0.00,,,0.00,,2013-07-15 11:22:00,
2013-07-15 06:32:00,70.0,68.0,30.16,SE,142,0.0,1.0,94,0.00,,,0.00,,2013-07-15 11:32:00,
2013-07-15 06:42:00,70.0,68.0,30.16,SE,142,0.0,1.0,94,0.00,,,0.00,,2013-07-15 11:42:00,
2013-07-15 06:52:00,70.0,68.0,30.16,SE,142,0.0,1.0,94,0.00,,,0.00,,2013-07-15 11:52:00,
2013-07-15 07:11:00,71.0,69.0,30.16,SE,142,0.0,1.0,93,0.00,,,0.00,,2013-07-15 12:11:00,
2013-07-15 07:22:00,71.0,69.0,30.16,SE,142,0.0,0.0,93,0.00,,,0.00,,2013-07-15 12:22:00,
2013-07-15 07:32:00,72.0,70.0,30.17,East,96,0.0,5.0,92,0.00,,,0.00,,2013-07-15 12:32:00,
2013-07-15 07:42:00,73.0,70.0,30.17,East,96,0.0,2.0,91,0.00,,,0.00,,2013-07-15 12:42:00,
2013-07-15 07:52:00,73.0,70.0,30.17,East,96,0.0,2.0,91,0.00,,,0.00,,2013-07-15 12:52:00,
2013-07-15 08:01:00,75.0,72.0,30.18,East,96,0.0,2.0,89,0.00,,,0.00,,2013-07-15 13:01:00,
2013-07-15 08:11:00,75.0,72.0,30.18,East,96,0.0,2.0,89,0.00,,,0.00,,2013-07-15 13:11:00,
2013-07-15 08:22:00,75.0,72.0,30.18,East,96,0.0,2.0,89,0.00,,,0.00,,2013-07-15 13:22:00,
2013-07-15 08:33:00,77.0,72.0,30.19,ENE,72,0.0,2.0,85,0.00,,,0.00,,2013-07-15 13:33:00,
2013-07-15 08:43:00,78.0,73.0,30.19,ESE,105,0.0,5.0,84,0.00,,,0.00,,2013-07-15 13:43:00,
2013-07-15 08:53:00,78.0,73.0,30.19,ESE,109,1.0,4.0,84,0.00,,,0.00,,2013-07-15 13:53:00,
2013-07-15 09:02:00,79.0,74.0,30.19,ESE,109,1.0,4.0,85,0.00,,,0.00,,2013-07-15 14:02:00,
2013-07-15 09:11:00,79.0,74.0,30.19,ESE,109,1.0,4.0,85,0.00,,,0.00,,2013-07-15 14:11:00,
2013-07-15 09:22:00,80.0,75.0,30.19,SE,124,1.0,4.0,84,0.00,,,0.00,,2013-07-15 14:22:00,
2013-07-15 09:33:00,80.0,74.0,30.19,ESE,123,0.0,5.0,82,0.00,,,0.00,,2013-07-15 14:33:00,
2013-07-15 09:42:00,81.0,75.0,30.19,East,97,1.0,4.0,82,0.00,,,0.00,,2013-07-15 14:42:00,
2013-07-15 10:00:00,82.0,76.0,30.19,ESE,118,2.0,4.0,81,0.00,,,0.00,,2013-07-15 15:00:00,
2013-07-15 10:17:00,83.0,75.0,30.19,SSE,151,1.0,4.0,78,0.00,,,0.00,,2013-07-15 15:17:00,
2013-07-15 10:27:00,83.0,76.0,30.19,East,81,0.0,4.0,79,0.00,,,0.00,,2013-07-15 15:27:00,
2013-07-15 10:45:00,84.0,75.0,30.19,ESE,110,0.0,4.0,75,0.00,,,0.00,,2013-07-15 15:45:00,
2013-07-15 10:53:00,84.0,76.0,30.19,ESE,115,1.0,5.0,77,0.00,,,0.00,,2013-07-15 15:53:00,
2013-07-15 11:07:00,84.0,76.0,30.19,ESE,115,1.0,5.0,77,0.00,,,0.00,,2013-07-15 16:07:00,
2013-07-15 11:15:00,85.0,76.0,30.19,SE,132,0.0,6.0,74,0.00,,,0.00,,2013-07-15 16:15:00,
2013-07-15 11:24:00,86.0,75.0,30.18,ESE,123,1.0,5.0,71,0.00,,,0.00,,2013-07-15 16:24:00,
2013-07-15 11:33:00,86.0,75.0,30.18,SE,138,2.0,5.0,71,0.00,,,0.00,,2013-07-15 16:33:00,
2013-07-15 11:45:00,87.0,76.0,30.18,East,84,1.0,6.0,70,0.00,,,0.00,,2013-07-15 16:45:00,
2013-07-15 11:52:00,87.0,76.0,30.18,East,84,1.0,6.0,70,0.00,,,0.00,,2013-07-15 16:52:00,
2013-07-15 12:13:00,88.0,77.0,30.19,SSE,149,1.0,5.0,69,0.00,,,0.00,,2013-07-15 17:13:00,
2013-07-15 12:23:00,88.0,77.0,30.19,SSE,149,1.0,5.0,69,0.00,,,0.00,,2013-07-15 17:23:00,
2013-07-15 12:36:00,88.0,75.0,30.18,SSE,166,0.0,6.0,65,0.00,,,0.00,,2013-07-15 17:36:00,
2013-07-15 12:48:00,89.0,77.0,30.18,SE,134,0.0,7.0,67,0.00,,,0.00,,2013-07-15 17:48:00,
2013-07-15 12:55:00,89.0,75.0,30.18,SSW,211,2.0,5.0,64,0.00,,,0.00,,2013-07-15 17:55:00,
2013-07-15 13:05:00,89.0,75.0,30.18,SSW,211,2.0,5.0,64,0.00,,,0.00,,2013-07-15 18:05:00,
2013-07-15 13:27:00,89.0,73.0,30.18,SE,140,0.0,5.0,60,0.00,,,0.00,,2013-07-15 18:27:00,
2013-07-15 13:37:00,90.0,77.0,30.18,SSE,153,1.0,5.0,66,0.00,,,0.00,,2013-07-15 18:37:00,
2013-07-15 13:45:00,89.0,75.0,30.17,SSE,150,1.0,5.0,64,0.00,,,0.00,,2013-07-15 18:45:00,
2013-07-15 13:56:00,90.0,76.0,30.17,SE,144,6.0,8.0,64,0.00,,,0.00,,2013-07-15 18:56:00,
2013-07-15 14:05:00,90.0,74.0,30.17,South,191,2.0,8.0,60,0.00,,,0.00,,2013-07-15 19:05:00,
2013-07-15 14:11:00,90.0,74.0,30.16,SSE,148,1.0,6.0,60,0.00,,,0.00,,2013-07-15 19:11:00,
2013-07-15 14:24:00,90.0,74.0,30.16,SE,140,0.0,6.0,60,0.00,,,0.00,,2013-07-15 19:24:00,
2013-07-15 14:35:00,89.0,75.0,30.16,ESE,107,1.0,7.0,63,0.00,,,0.00,,2013-07-15 19:35:00,
2013-07-15 14:46:00,90.0,75.0,30.16,ENE,59,1.0,6.0,61,0.00,,,0.00,,2013-07-15 19:46:00,
2013-07-15 14:56:00,90.0,75.0,30.16,ESE,123,2.0,6.0,61,0.00,,,0.00,,2013-07-15 19:56:00,
2013-07-15 15:16:00,91.0,75.0,30.15,SE,139,1.0,5.0,60,0.00,,,0.00,,2013-07-15 20:16:00,
2013-07-15 15:28:00,90.0,75.0,30.15,ESE,113,1.0,5.0,62,0.00,,,0.00,,2013-07-15 20:28:00,
2013-07-15 15:36:00,90.0,75.0,30.15,ESE,113,1.0,5.0,62,0.00,,,0.00,,2013-07-15 20:36:00,
2013-07-15 15:43:00,87.0,76.0,30.14,SSE,149,2.0,5.0,69,0.00,,,0.00,,2013-07-15 20:43:00,
2013-07-15 15:54:00,87.0,76.0,30.14,SSE,149,0.0,5.0,69,0.00,,,0.00,,2013-07-15 20:54:00,
2013-07-15 16:02:00,86.0,75.0,30.14,SE,127,2.0,8.0,71,0.00,,,0.00,,2013-07-15 21:02:00,
2013-07-15 16:12:00,85.0,77.0,30.15,SE,142,2.0,9.0,76,0.00,,,0.00,,2013-07-15 21:12:00,
2013-07-15 16:23:00,84.0,76.0,30.14,SE,145,2.0,7.0,77,0.00,,,0.00,,2013-07-15 21:23:00,
2013-07-15 16:47:00,84.0,75.0,30.14,SE,139,2.0,7.0,75,0.00,,,0.00,,2013-07-15 21:47:00,
2013-07-15 16:56:00,85.0,77.0,30.14,SSE,155,1.0,4.0,77,0.00,,,0.00,,2013-07-15 21:56:00,
2013-07-15 17:03:00,85.0,77.0,30.14,SSE,155,0.0,2.0,76,0.00,,,0.00,,2013-07-15 22:03:00,
2013-07-15 17:17:00,86.0,77.0,30.13,SSE,155,1.0,4.0,74,0.00,,,0.00,,2013-07-15 22:17:00,
2013-07-15 17:22:00,86.0,77.0,30.13,SSE,155,1.0,4.0,74,0.00,,,0.00,,2013-07-15 22:22:00,
2013-07-15 17:34:00,85.0,77.0,30.13,SSE,155,0.0,1.0,76,0.00,,,0.00,,2013-07-15 22:34:00,
2013-07-15 17:43:00,85.0,77.0,30.13,SSE,155,0.0,1.0,76,0.00,,,0.00,,2013-07-15 22:43:00,
2013-07-15 17:54:00,87.0,77.0,30.12,SSE,153,0.0,4.0,73,0.00,,,0.00,,2013-07-15 22:54:00,
2013-07-15 18:06:00,86.0,76.0,30.12,SSE,153,2.0,6.0,73,0.00,,,0.00,,2013-07-15 23:06:00,
2013-07-15 18:13:00,86.0,76.0,30.12,SE,131,1.0,5.0,73,0.00,,,0.00,,2013-07-15 23:13:00,
2013-07-15 18:37:00,86.0,75.0,30.12,SE,131,0.0,4.0,71,0.00,,,0.00,,2013-07-15 23:37:00,
2013-07-15 18:46:00,86.0,75.0,30.12,East,85,0.0,4.0,71,0.00,,,0.00,,2013-07-15 23:46:00,
2013-07-15 18:53:00,86.0,76.0,30.12,ESE,110,0.0,4.0,72,0.00,,,0.00,,2013-07-15 23:53:00,
2013-07-15 19:03:00,86.0,75.0,30.12,SE,139,2.0,6.0,69,0.00,,,0.00,,2013-07-16 00:03:00,
2013-07-15 19:14:00,86.0,75.0,30.12,SE,142,0.0,5.0,69,0.00,,,0.00,,2013-07-16 00:14:00,
2013-07-15 19:25:00,85.0,75.0,30.12,ESE,109,1.0,4.0,71,0.00,,,0.00,,2013-07-16 00:25:00,
2013-07-15 19:33:00,85.0,75.0,30.13,SE,127,0.0,4.0,72,0.00,,,0.00,,2013-07-16 00:33:00,
2013-07-15 19:46:00,85.0,75.0,30.13,ESE,102,0.0,4.0,72,0.00,,,0.00,,2013-07-16 00:46:00,
2013-07-15 19:53:00,84.0,75.0,30.13,ESE,116,0.0,4.0,75,0.00,,,0.00,,2013-07-16 00:53:00,
2013-07-15 20:07:00,84.0,75.0,30.13,ESE,117,1.0,4.0,74,0.00,,,0.00,,2013-07-16 01:07:00,
2013-07-15 20:56:00,82.0,75.0,30.13,ESE,121,0.0,1.0,79,0.00,,,0.00,,2013-07-16 01:56:00,
2013-07-15 21:04:00,82.0,75.0,30.13,ESE,121,0.0,1.0,80,0.00,,,0.00,,2013-07-16 02:04:00,
2013-07-15 21:11:00,82.0,76.0,30.13,ESE,120,0.0,1.0,81,0.00,,,0.00,,2013-07-16 02:11:00,
2013-07-15 21:27:00,81.0,75.0,30.14,ESE,120,0.0,0.0,82,0.00,,,0.00,,2013-07-16 02:27:00,
2013-07-15 21:35:00,81.0,75.0,30.14,ESE,120,0.0,1.0,82,0.00,,,0.00,,2013-07-16 02:35:00,
2013-07-15 21:48:00,81.0,75.0,30.15,ESE,123,1.0,6.0,82,0.00,,,0.00,,2013-07-16 02:48:00,
2013-07-15 21:54:00,81.0,75.0,30.15,ESE,116,0.0,1.0,83,0.00,,,0.00,,2013-07-16 02:54:00,
2013-07-15 22:07:00,80.0,75.0,30.15,ESE,116,0.0,2.0,84,0.00,,,0.00,,2013-07-16 03:07:00,
2013-07-15 22:15:00,80.0,75.0,30.15,ESE,116,0.0,4.0,84,0.00,,,0.00,,2013-07-16 03:15:00,
2013-07-15 22:38:00,79.0,74.0,30.16,SE,137,0.0,4.0,85,0.00,,,0.00,,2013-07-16 03:38:00,
2013-07-15 22:47:00,79.0,74.0,30.16,SE,137,0.0,4.0,85,0.00,,,0.00,,2013-07-16 03:47:00,
2013-07-15 22:56:00,78.0,74.0,30.17,ESE,121,0.0,2.0,88,0.00,,,0.00,,2013-07-16 03:56:00,
2013-07-15 23:01:00,78.0,74.0,30.17,SE,125,0.0,2.0,89,0.00,,,0.00,,2013-07-16 04:01:00,
2013-07-15 23:12:00,77.0,74.0,30.17,SE,125,0.0,0.0,89,0.00,,,0.00,,2013-07-16 04:12:00,
2013-07-15 23:22:00,78.0,74.0,30.17,SE,124,0.0,1.0,89,0.00,,,0.00,,2013-07-16 04:22:00,
2013-07-15 23:32:00,78.0,74.0,30.17,ESE,111,0.0,4.0,89,0.00,,,0.00,,2013-07-16 04:32:00,
2013-07-15 23:43:00,77.0,74.0,30.18,ESE,111,0.0,4.0,89,0.00,,,0.00,,2013-07-16 04:43:00,
2013-07-15 23:53:00,77.0,74.0,30.18,ESE,111,0.0,1.0,91,0.00,,,0.00,,2013-07-16 04:53:00,